Weather Roundup
Issued by NWS

Home | Current Version | Previous Version | Graphics & Text | Print | Product List | Glossary Off
Versions: 1 2 3 4 5 6 7 8 9 10 11 12 13 14 15 16 17 18 19 20 21 22 23 24 25 26 27 28 29 30 31 32 33 34 35 36 37 38 39 40 41 42 43 44 45 46 47 48 49 50

000
NZUS93 KARX 251310
HRRWXR

CURRENT HOURLY OBSERVATIONS ACROSS
MUCH OF THE UPPER MISSISSIPPI VALLEY
NATIONAL WEATHER SERVICE LA CROSSE WI
700 AM CST SUN JAN 25 2015


...SOUTHEAST MINNESOTA...


CITY           SKY/WX    TMP DP  RH WIND       PRES   REMARKS
ROCHESTER      CLOUDY    30  27  88 NE16      29.81R WCI  19
ROCHESTER/MAYO CLOUDY    30  24  78 N7        29.82R WCI  23
WINONA         CLOUDY    32  28  86 E6        29.86R WCI  26
AUSTIN         CLOUDY    30  28  93 NE13G18   29.79R WCI  20
ALBERT LEA     CLOUDY    30  28  93 N15G21    29.81R WCI  19
DODGE CENTER   CLOUDY    28  25  86 NE13G25   29.82R WCI  18
PRESTON        CLOUDY    28  25  87 NE15G21   29.80R WCI  16
OWATONNA       CLOUDY    28  25  86 N13       29.85R WCI  18
FARIBAULT      CLOUDY    28  21  74 N14G20    29.87R WCI  17
$$

...ELSEWHERE IN MINNESOTA...


CITY           SKY/WX    TMP DP  RH WIND       PRES   REMARKS
MINNEAPOLIS    MOCLDY    22  14  71 N14       29.93R WCI   9
INTNL FALLS    CLOUDY     2  -5  72 E8        30.01S WCI -12
DULUTH         FLURRIES  17  12  80 NE9       29.95R WCI   6
RED WING       CLOUDY    27  19  74 NE7G16    29.89R WCI  19
REDWOOD FALLS  CLOUDY    30  25  81 NE8       29.91R WCI  22
MANKATO        MOCLDY    28  21  74 NE16      29.87R WCI  17
WORTHINGTON    CLOUDY    30  28  93 N20       29.86R WCI  18
FAIRMONT       CLOUDY    30  27  86 N16G22    29.83R WCI  19
$$

...SOUTHWEST WISCONSIN...


CITY           SKY/WX    TMP DP  RH WIND       PRES   REMARKS
LA CROSSE      CLOUDY    28  21  75 E14       29.86R WCI  17
PRAIRIE DU CHI LGT SNOW  29  24  80 NE8G21    29.80R WCI  21
BOSCOBEL       LGT SNOW  26  20  77 NE9G21    29.82R WCI  17
LONE ROCK      LGT SNOW  25  19  78 E12       29.83R WCI  14
PLATTEVILLE    CLOUDY    27  25  90 NE17G26   29.75R WCI  15
FORT MC COY    CLOUDY    24  16  72 NE10G16   29.88R WCI  13
CAMP DOUGLAS   CLOUDY    22  19  89 NE9       29.87R WCI  11
VIROQUA        CLOUDY    24  20  86 NE18      29.81R WCI   9
WIS DELLS      CLOUDY    21  17  83 NE12G21   29.84R FOG     WCI   9
$$

...ELSEWHERE IN WISCONSIN...


CITY           SKY/WX    TMP DP  RH WIND       PRES   REMARKS
MILWAUKEE      LGT SNOW  27  22  81 NE20G29   29.82R WCI  13
MADISON        LGT SNOW  24  19  81 NE15      29.81R WCI  11
GREEN BAY      CLOUDY    18  10  71 NE21G31   29.93R WCI   1
EAU CLAIRE     CLOUDY    21  12  68 NE10      29.90R WCI  10
BLACK RVR FLS  CLOUDY    26  19  75 E6        29.86R WCI  20
MEDFORD        MOCLDY    14   8  77 NE8       29.87R WCI   2
WAUSAU         CLOUDY    16   8  71 NE10      29.88R WCI   4
WIS RAPIDS     CLOUDY    20  11  68 E13       29.90R WCI   7
MARSHFIELD     CLOUDY    20  10  65 E14       29.87R WCI   7
RICE LAKE      PTCLDY    15   9  77 N8        29.95R WCI   3
$$

...NORTHEAST IOWA...


CITY           SKY/WX    TMP DP  RH WIND       PRES   REMARKS
DECORAH        LGT SNOW  28  27  93 NE14G22   29.77R WCI  17
MASON CITY     CLOUDY    33  31  92 NE14      29.78R FOG     WCI  23
CHARLES CITY   CLOUDY    34  34 100 NE15G21   29.75R WCI  24
OELWEIN        CLOUDY    32  30  93 NE21G28   29.71R WCI  20
$$

...ELSEWHERE IN IOWA...


CITY           SKY/WX    TMP DP  RH WIND       PRES   REMARKS
DES MOINES     LGT RAIN  37  33  85 N12       29.66R WCI  29
IOWA CITY      LGT SNOW  33  32  96 NE15      29.67R FOG     WCI  23
FORT DODGE     CLOUDY    34  30  86 N12G20    29.75R WCI  25
$$

...NORTHERN ILLINOIS...


CITY           SKY/WX    TMP DP  RH WIND       PRES   REMARKS
CHICAGO-OHARE  LGTSLEET  32  30  92 NE21      29.73R WCI  20
CHICAGO-MIDWAY LGT RAIN  37  34  89 NE12      29.71R WCI  29
MOLINE         LGT SNOW  33  31  92 NE20      29.65R FOG     WCI  21
ROCKFORD       LGT SNOW  30  25  81 NE17G30   29.75R WCI  18
PEORIA         LGT RAIN  37  34  89 NE12      29.62R WCI  29
$$

NOTE: "FAIR" INDICATES FEW OR NO CLOUDS BELOW 12,000 FEET WITH NO
SIGNIFICANT WEATHER AND/OR OBSTRUCTIONS TO VISIBILITY. WIND
SPEEDS ARE IN MILES-PER-HOUR.



USA.gov is the U.S. government's official web portal to all federal, state and local government web resources and services.